Location: Fort Wayne
(41.1310°N, 85.1290°W)
Time: 01:46:00
(UTC-04:00)

Helios 1B - Visible Passes

Search period start: 02 July 2016 00:00
Search period end: 12 July 2016 00:00
Orbit: 622 x 624 km, 98.1° (Epoch: 30 June)

Date Brightness Start Highest point End Pass type
(mag) Time Alt. Az. Time Alt. Az. Time Alt. Az.
02 Jul 5.4 00:51:08 39° ENE 00:51:11 39° ENE 00:55:13 10° N visible
02 Jul 6.6 02:28:21 17° WNW 02:28:21 17° WNW 02:30:29 10° NW visible
03 Jul 4.9 01:09:28 60° NE 01:09:28 60° NE 01:13:30 10° N visible
03 Jul 7.0 02:46:41 11° WNW 02:46:41 11° WNW 02:47:15 10° WNW visible
04 Jul 4.8 01:27:47 69° NNW 01:27:47 69° NNW 01:31:39 10° NNW visible
05 Jul 6.7 00:08:54 14° ENE 00:09:43 15° ENE 00:12:10 10° NNE visible
05 Jul 5.3 01:46:07 46° WNW 01:46:07 46° WNW 01:49:40 10° NNW visible
06 Jul 6.2 00:27:14 22° ENE 00:27:38 22° ENE 00:30:59 10° NNE visible
06 Jul 5.9 02:04:27 30° WNW 02:04:27 30° WNW 02:07:30 10° NNW visible
07 Jul 5.7 00:45:34 33° ENE 00:45:35 33° ENE 00:49:30 10° N visible
07 Jul 6.5 02:22:47 20° WNW 02:22:47 20° WNW 02:25:07 10° NW visible
08 Jul 5.1 01:03:54 51° ENE 01:03:54 51° ENE 01:07:50 10° N visible
08 Jul 6.9 02:41:07 13° WNW 02:41:07 13° WNW 02:42:15 10° WNW visible
09 Jul 4.8 01:22:14 66° N 01:22:14 66° N 01:26:01 10° NNW visible
10 Jul 6.9 00:03:21 12° ENE 00:04:10 13° ENE 00:06:08 10° NE visible
10 Jul 5.2 01:40:34 51° NW 01:40:34 51° NW 01:44:04 10° NNW visible
11 Jul 6.4 00:21:41 19° ENE 00:22:03 19° ENE 00:25:09 10° NNE visible
11 Jul 5.8 01:58:54 33° WNW 01:58:54 33° WNW 02:01:58 10° NNW visible
